COSMOS 2251 DEB

Satellite information

Favourite Embed

Satellite Type and Status

DEBRISIN ORBIT

Key statistics

Satellite COSMOS 2251 DEB at a glance.

Uptime

11649

Days in orbit

Revolutions

≈ 14.9

Per day

Orbit

LEO

Low Earth Orbit

Inclination

74.0

Latest

Satellite identification and parameters

Extended collection of information and parameters for COSMOS 2251 DEB.

Object identification

Identified? True

Debris? True

Object name: COSMOS 2251 DEB

International designator: 1993-036APY

Object number (NORAD): 35703

Object ID (CCSDS): 35703

Country: COMMONWEALTH OF INDEPENDENT STATES (CIS)

Current information (Y/N): Y

RCS size: SMALL

Orbital parameters

Period: 96.867 minutes

Inclination: 74.0417 deg

SMA: 6986.778 km

Apoapsis: 660.914 km

Periapsis: 556.371 km

RAAN: 121.6759 deg

Eccentricy: 0.0074815

Argument of periapsis: 252.0724 deg

Mean anomaly: 107.2289 deg

Mean motion: 14.8657689 rev/day

Mean motion (dot): 0.00007085 rev/day2

B* drag term: 0.00076294 1/REarth

Two-line elements (TLE)

Creation date: May 7, 2025, 3:14 a.m.

Reference frame: TEME

Reference center: EARTH

Epoch: May 6, 2025, 3:42 p.m. UTC

TLE line 0: 0 COSMOS 2251 DEB

TLE line 1: 1 35703U 93036APY 25126.65474765 .00007085 00000-0 76294-3 0 9990

TLE line 2: 2 35703 74.0417 121.6759 0074815 252.0724 107.2289 14.86576890633422

Live tracking on map

Real-time ground track for satellite COSMOS 2251 DEB.

In-orbit conjunctions

A list of the most updated potential collisions computed for object COSMOS 2251 DEB.

Target Orbit TCA Probability of collision Miss distance Type
FENGYUN 1C DEB SSO 2024-11-14 14:43:24 0.0001384429 899.0 (m) DEBRIS
OBJECT D SSO 2024-10-10 10:07:32 0.0001592459 43.0 (m) UNKNOWN

Associated space launch

Military communications satellite. Destroyed in a collision with Iridium 33.

COSMOS 2251 DEB was lifted into orbit during the mission ‘Kosmos-3M | Strela-2M 51’, on board a Kosmos-3M space rocket.

The launch took place on June 16, 1993, 4:17 a.m. from 132/1 (132L).

For more information about the launch, click the button.

Launch to space Kosmos-3M | Strela-2M 51
Kosmos-3M | Strela-2M 51

Agency: N/A

Status: Launch Successful

Launch date: June 16, 1993, 4:17 a.m. UTC

Rocket: Kosmos-3M

Launch pad: 132/1 (132L)

Location: Plesetsk Cosmodrome, Russian Federation

...

Latest news about this satellite

There are no fresh news available about this satellite. Check back as we update our databases every day.


Newsletter sign-up

Weekly statistics, charts and insights to help you stay on top of the space industry.